This is the latest recevied weather packets stored in our database for station/object KC3ULW-13. If no packets are shown the sender has not sent any weather packets the latest 10 day(s).
| Time | Temp. | Humidity | Pressure | Rain* | Wind** | Luminosity | Snow |
|---|---|---|---|---|---|---|---|
| 1777467248 | 13.33° C | 91% | 1012.9 hPa | 33.53 mm | - | 10 W/m² | - |
| 1777466338 | 13.89° C | 90% | 1013.8 hPa | 4.83 mm | - | 0 W/m² | - |
| 1777465731 | 13.89° C | 90% | 1013.2 hPa | 0 mm | - | 2 W/m² | - |
| 1777465427 | 13.89° C | 90% | 1012.6 hPa | 0 mm | - | 6 W/m² | - |
| 1777465126 | 13.89° C | 90% | 1012.7 hPa | 0 mm | - | 6 W/m² | - |
| 1777464822 | 13.89° C | 91% | 1012.7 hPa | 0 mm | - | 10 W/m² | - |
| 1777464521 | 13.33° C | 91% | 1012.6 hPa | 0 mm | - | 22 W/m² | - |
| 1777464218 | 13.89° C | 91% | 1012.3 hPa | 0 mm | - | 30 W/m² | - |
| 1777463913 | 13.89° C | 91% | 1012.7 hPa | 0 mm | - | 34 W/m² | - |
| 1777463609 | 13.89° C | 91% | 1012.7 hPa | 0 mm | - | 37 W/m² | - |
| 1777463304 | 13.33° C | 91% | 1013 hPa | 0 mm | - | 34 W/m² | - |
| 1777462696 | 13.33° C | 91% | 1012.9 hPa | 0 mm | - | 21 W/m² | - |
| 1777462391 | 13.33° C | 91% | 1013.4 hPa | 0 mm | - | 16 W/m² | - |
| 1777462088 | 13.33° C | 91% | 1013.7 hPa | 0 mm | - | 10 W/m² | - |
| 1777461785 | 13.33° C | 91% | 1013.3 hPa | 0 mm | - | 8 W/m² | - |
| 1777461480 | 13.33° C | 91% | 1013.3 hPa | 0 mm | - | 6 W/m² | - |
| 1777461177 | 12.78° C | 91% | 1013.5 hPa | 0 mm | - | 4 W/m² | - |
| 1777460872 | 12.78° C | 91% | 1013.6 hPa | 0 mm | - | 4 W/m² | - |
| 1777460568 | 12.78° C | 91% | 1013.4 hPa | 0 mm | - | 3 W/m² | - |
| 1777460263 | 12.78° C | 91% | 1013.4 hPa | 0 mm | - | 4 W/m² | - |
| 1777459960 | 12.78° C | 91% | 1013.3 hPa | 0 mm | - | 4 W/m² | - |
| 1777459658 | 12.78° C | 91% | 1013.3 hPa | 0 mm | - | 3 W/m² | - |
| 1777459053 | 12.78° C | 91% | 1013.2 hPa | 0 mm | - | 1 W/m² | - |
| 1777458749 | 12.22° C | 91% | 1013.5 hPa | 0 mm | - | 0 W/m² | - |
| 1777458446 | 12.22° C | 91% | 1013.3 hPa | 0 mm | - | 0 W/m² | - |
* Rain latest hour (hover to see other rain measurements)
** Current wind speed in m/s (hover to see current wind gust speed)